Regional Weather Roundup
Issued by NWS

Home | Current Version | Previous Version | Graphics & Text | Print | Product List | Glossary On
Versions: 1 2 3 4 5 6 7 8 9 10 11 12 13 14 15 16 17 18 19 20 21 22 23 24 25 26 27 28 29 30 31 32 33 34 35 36 37 38 39 40 41 42 43 44 45 46 47 48 49 50
000
ASUS45 KCYS 260810
RWRWY

WYOMING REGIONAL WEATHER ROUNDUP
NATIONAL WEATHER SERVICE CHEYENNE WY
200 AM MDT THU APR 26 2018

NOTE:  "FAIR" INDICATES FEW OR NO CLOUDS BELOW 12,000 FEET
WITH NO SIGNIFICANT WEATHER AND/OR OBSTRUCTIONS TO VISIBILITY.

WYZ001-260900-
YELLOWSTONE NATIONAL PARK

CITY           SKY/WX    TMP DP  RH WIND       PRES   REMARKS
LK YELLOWSTONE   N/A     26  23  88 CALM      30.32S
W YELLOWSTONE  NOT AVBL

$$
WYZ002>013-054>058-071-098>099-260900-
NORTHERN WYOMING

CITY           SKY/WX    TMP DP  RH WIND       PRES   REMARKS
JACKSON        FAIR      39  26  59 N13       30.25R WCI  31
CODY           FAIR      40  32  73 W5        30.29R
GREYBULL       FAIR      43  35  73 NW17      30.23R
WORLAND        FAIR      42  36  79 NW9       30.25R
SHERIDAN       MOCLDY    44  35  70 W15       30.23S
BUFFALO        CLOUDY    44  33  65 NW22G29   30.24R
GILLETTE       CLOUDY    46  33  60 NW20      30.18R
HULETT         CLOUDY    46  30  53 N14       30.16R
NEWCASTLE      FAIR      45  27  49 N16G23    30.09R

$$
WYZ014>020-022>026-101>103-260900-
CENTRAL WYOMING

CITY           SKY/WX    TMP DP  RH WIND       PRES   REMARKS
BIG PINEY      FAIR      31  18  58 NW7       30.24R WCI  24
PINEDALE       FAIR      28  23  80 NW7       30.24F WCI  21
DUBOIS         FAIR      32  27  80 CALM      30.24S
LANDER         CLOUDY    42  32  67 NE13      30.26R
RIVERTON       CLOUDY    41  32  70 N12       30.26R
CASPER         CLOUDY    43  29  57 N9        30.23R
DOUGLAS        CLOUDY    46  29  51 NW16G26   30.19R

$$
WYZ021-027>030-104>119-260900-
SOUTHERN WYOMING

CITY           SKY/WX    TMP DP  RH WIND       PRES   REMARKS
EVANSTON       FAIR      41  21  44 E6        30.26R
KEMMERER       FAIR      39  27  60 CALM      30.27R
FORT BRIDGER   FAIR      41  20  43 W8        30.29S
ROCK SPRINGS   FAIR      40  20  44 NE9       30.25R WCI  34
DIXON          FAIR      43  18  36 NE13      30.20F
RAWLINS        CLOUDY    40  22  48 NE6       30.22R
SARATOGA       CLOUDY    37  19  48 W7        30.21R WCI  32
LARAMIE        MOCLDY    33  20  58 NW8       30.15R WCI  26
CHEYENNE       FAIR      45  24  43 N24G35    30.09R
TORRINGTON     CLOUDY    53  29  39 N21G35    30.03R
PINE BLUFFS    FAIR      46  27  46 N16G23    30.05S

$$



USA.gov is the U.S. government's official web portal to all federal, state and local government web resources and services.